This is the latest recevied weather packets stored in our database for station/object PY2UEP-1. If no packets are shown the sender has not sent any weather packets the latest 10 day(s).
| Time | Temp. | Humidity | Pressure | Rain* | Wind** | Luminosity | Snow |
|---|---|---|---|---|---|---|---|
| 1777673440 | 23.89° C | 76% | 1018.9 hPa | 0 mm | - | - | - |
| 1777673140 | 23.89° C | 76% | 1018.9 hPa | 0 mm | - | - | - |
| 1777672840 | 23.89° C | 77% | 1018.6 hPa | 0 mm | - | - | - |
| 1777672540 | 23.89° C | 77% | 1018.6 hPa | 0 mm | - | - | - |
| 1777672240 | 24.44° C | 76% | 1018.6 hPa | 0 mm | - | - | - |
| 1777671940 | 24.44° C | 76% | 1018.8 hPa | 0 mm | - | - | - |
| 1777671640 | 24.44° C | 76% | 1018.6 hPa | 0 mm | - | - | - |
| 1777671340 | 24.44° C | 76% | 1018.8 hPa | 0 mm | - | - | - |
| 1777671040 | 24.44° C | 74% | 1018.8 hPa | 0 mm | - | - | - |
| 1777670740 | 24.44° C | 73% | 1018.8 hPa | 0 mm | - | - | - |
| 1777670440 | 24.44° C | 72% | 1018.8 hPa | 0 mm | - | - | - |
| 1777670140 | 24.44° C | 70% | 1018.8 hPa | 0 mm | - | - | - |
| 1777669840 | 25° C | 70% | 1018.6 hPa | 0 mm | - | - | - |
| 1777669540 | 25° C | 70% | 1018.6 hPa | 0 mm | - | - | - |
| 1777669240 | 25° C | 70% | 1018.6 hPa | 0 mm | - | - | - |
| 1777668940 | 25° C | 70% | 1018.4 hPa | 0 mm | - | - | - |
| 1777668640 | 25.56° C | 69% | 1018.5 hPa | 0 mm | - | - | - |
| 1777668340 | 25.56° C | 69% | 1018.4 hPa | 0 mm | - | - | - |
| 1777668040 | 26.11° C | 68% | 1018.3 hPa | 0 mm | - | - | - |
| 1777667740 | 26.11° C | 67% | 1018.3 hPa | 0 mm | - | - | - |
| 1777667440 | 26.67° C | 69% | 1018.3 hPa | 0 mm | - | - | - |
| 1777667140 | 26.67° C | 65% | 1018.5 hPa | 0 mm | - | - | - |
| 1777666840 | 26.67° C | 66% | 1018.4 hPa | 0 mm | - | - | - |
| 1777666540 | 27.22° C | 64% | 1018.4 hPa | 0 mm | - | - | - |
| 1777666240 | 28.33° C | 60% | 1018.4 hPa | 0 mm | - | - | - |
* Rain since midnight (hover to see other rain measurements)
** Current wind speed in m/s (hover to see current wind gust speed)